| time (UTC) | temp C | wind direction | speed KPH | gust KPH | rain 1hr cm | rain 24hr cm | rain mn cm | humidity % | barometer mb |
| 20260904062618 | 20 | 35 | 0.0 | 0.0 | 0.00 | 0.53 | 0.53 | 99 | 1020.1 |
| 20260904062113 | 20 | 43 | 0.0 | 0.0 | 0.00 | 0.53 | 0.53 | 99 | 1020.0 |
| 20260904061609 | 20 | 57 | 0.0 | 0.0 | 0.00 | 0.53 | 0.53 | 99 | 1020.0 |
| 20260904061105 | 20 | 196 | 0.0 | 0.0 | 0.00 | 0.53 | 0.53 | 99 | 1019.9 |
| 20260904060601 | 20 | 192 | 0.0 | 0.0 | 0.00 | 0.53 | 0.53 | 99 | 1020.3 |
| 20260904060057 | 20 | 93 | 0.0 | 0.0 | 0.00 | 0.53 | 0.53 | 99 | 1020.3 |
| 20260904055552 | 20 | 112 | 0.0 | 0.0 | 0.00 | 0.53 | 0.53 | 99 | 1020.5 |
| 20260904055047 | 20 | 93 | 0.0 | 0.0 | 0.00 | 0.53 | 0.53 | 99 | 1020.5 |
| 20260904054543 | 20 | 275 | 0.0 | 0.0 | 0.00 | 0.53 | 0.53 | 99 | 1020.5 |
| 20260904054038 | 20 | 232 | 0.0 | 0.0 | 0.00 | 0.53 | 0.53 | 99 | 1021.1 |
| 20260904053538 | 20 | 302 | 0.0 | 0.0 | 0.00 | 0.53 | 0.53 | 99 | 1020.9 |
| 20260904053033 | 20 | 269 | 0.0 | 0.0 | 0.00 | 0.53 | 0.53 | 99 | 1021.2 |
| 20260904052529 | 20 | 198 | 0.0 | 0.0 | 0.00 | 0.53 | 0.53 | 99 | 1021.3 |
| 20260904052025 | 20 | 250 | 0.0 | 0.0 | 0.00 | 0.53 | 0.53 | 99 | 1021.6 |
| 20260904051522 | 21 | 155 | 0.0 | 0.0 | 0.00 | 0.53 | 0.53 | 99 | 1021.6 |
| 20260904051020 | 21 | 192 | 1.6 | 3.2 | 0.00 | 0.53 | 0.53 | 99 | 1021.9 |
| 20260904050517 | 21 | 156 | 1.6 | 3.2 | 0.00 | 0.53 | 0.53 | 99 | 1021.8 |
| 20260904050013 | 21 | 209 | 4.8 | 6.4 | 0.00 | 0.53 | 0.53 | 99 | 1022.3 |
| 20260904045507 | 21 | 229 | 3.2 | 9.7 | 0.13 | 0.53 | 0.53 | 98 | 1021.9 |
| 20260904045002 | 21 | 38 | 9.7 | 11.3 | 0.79 | 0.53 | 0.53 | 98 | 1021.7 |
| 20260904044458 | 21 | 12 | 0.0 | 0.0 | 1.27 | 0.51 | 0.51 | 98 | 1022.7 |
| 20260904043954 | 21 | 70 | 4.8 | 6.4 | 0.79 | 0.38 | 0.38 | 98 | 1022.9 |
| 20260904043450 | 21 | 226 | 0.0 | 1.6 | 1.80 | 0.30 | 0.30 | 96 | 1022.9 |
| 20260904042946 | 22 | 41 | 3.2 | 6.4 | 1.37 | 0.23 | 0.23 | 94 | 1022.1 |
| 20260904042442 | 23 | 187 | 1.6 | 3.2 | 0.00 | 0.00 | 0.00 | 91 | 1022.6 |
| 20260904041936 | 23 | 19 | 0.0 | 1.6 | 0.00 | 0.00 | 0.00 | 89 | 1022.2 |
| 20260904041433 | 23 | 207 | 0.0 | 1.6 | 0.00 | 0.00 | 0.00 | 89 | 1022.4 |
| 20260904040929 | 23 | 13 | 1.6 | 3.2 | 0.00 | 0.00 | 0.00 | 88 | 1022.5 |
| 20260904040429 | 23 | 265 | 1.6 | 1.6 | 0.00 | 0.00 | 0.00 | 91 | 1022.3 |
| 20260904035925 | 23 | 6 | 0.0 | 3.2 | 0.00 | 0.00 | 0.00 | 91 | 1022.1 |
| 20260904035421 | 22 | 89 | 3.2 | 6.4 | 0.00 | 0.00 | 0.00 | 92 | 1022.5 |
| 20260904034920 | 22 | 37 | 3.2 | 6.4 | 0.00 | 0.00 | 0.00 | 99 | 1022.6 |
| 20260904034415 | 21 | 25 | 0.0 | 0.0 | 0.00 | 0.00 | 0.00 | 99 | 1022.2 |
| 20260904033911 | 22 | 318 | 0.0 | 0.0 | 0.00 | 0.00 | 0.00 | 99 | 1022.2 |
| 20260904033407 | 21 | 76 | 0.0 | 0.0 | 0.00 | 0.00 | 0.00 | 99 | 1021.9 |
| 20260904032903 | 21 | 70 | 0.0 | 0.0 | 0.00 | 0.00 | 0.00 | 99 | 1021.9 |
| 20260904032358 | 21 | 112 | 0.0 | 0.0 | 0.00 | 0.00 | 0.00 | 99 | 1022.2 |
| 20260904031852 | 21 | 186 | 0.0 | 0.0 | 0.00 | 0.00 | 0.00 | 99 | 1022.1 |
| 20260904031347 | 22 | 256 | 0.0 | 0.0 | 0.00 | 0.00 | 0.00 | 99 | 1022.3 |
| 20260904030844 | 21 | 156 | 0.0 | 0.0 | 0.00 | 0.00 | 0.00 | 99 | 1022.3 |
| 20260904030339 | 21 | 218 | 0.0 | 0.0 | 0.00 | 0.00 | 0.00 | 99 | 1022.4 |
| 20260904025834 | 21 | 78 | 0.0 | 0.0 | 0.00 | 0.00 | 0.00 | 99 | 1022.3 |
| 20260904025330 | 21 | 67 | 0.0 | 0.0 | 0.00 | 0.00 | 0.00 | 99 | 1022.4 |
| 20260904024824 | 21 | 100 | 0.0 | 0.0 | 0.00 | 0.00 | 0.00 | 99 | 1022.3 |
| 20260904024319 | 21 | 100 | 0.0 | 0.0 | 0.00 | 0.00 | 0.00 | 99 | 1021.8 |
| 20260904023816 | 21 | 88 | 0.0 | 0.0 | 0.00 | 0.00 | 0.00 | 99 | 1021.5 |
| 20260904023312 | 21 | 186 | 0.0 | 0.0 | 0.00 | 0.00 | 0.00 | 99 | 1021.4 |
| 20260904022810 | 21 | 172 | 0.0 | 0.0 | 0.00 | 0.00 | 0.00 | 99 | 1021.3 |
| 20260904022308 | 21 | 97 | 0.0 | 0.0 | 0.00 | 0.00 | 0.00 | 99 | 1021.4 |
| 20260904021804 | 21 | 157 | 0.0 | 0.0 | 0.00 | 0.00 | 0.00 | 99 | 1021.5 |
| 20260904021258 | 22 | 224 | 0.0 | 0.0 | 0.00 | 0.00 | 0.00 | 99 | 1021.5 |
| 20260904020754 | 22 | 124 | 0.0 | 0.0 | 0.00 | 0.00 | 0.00 | 99 | 1021.8 |
| 20260904020254 | 22 | 180 | 0.0 | 0.0 | 0.00 | 0.00 | 0.00 | 99 | 1021.9 |
| 20260904015752 | 22 | 180 | 0.0 | 0.0 | 0.00 | 0.00 | 0.00 | 99 | 1021.7 |
| 20260904015248 | 22 | 116 | 0.0 | 0.0 | 0.00 | 0.00 | 0.00 | 99 | 1021.5 |
| 20260904014746 | 22 | 107 | 0.0 | 0.0 | 0.00 | 0.00 | 0.00 | 99 | 1021.5 |
| 20260904014241 | 22 | 95 | 0.0 | 0.0 | 0.00 | 0.00 | 0.00 | 99 | 1021.3 |
| 20260904013737 | 22 | 84 | 0.0 | 0.0 | 0.00 | 0.00 | 0.00 | 98 | 1021.3 |
| 20260904013233 | 22 | 85 | 0.0 | 0.0 | 0.00 | 0.00 | 0.00 | 98 | 1021.2 |
| 20260904012729 | 22 | 83 | 0.0 | 0.0 | 0.00 | 0.00 | 0.00 | 98 | 1020.9 |
| 20260904012228 | 22 | 227 | 0.0 | 0.0 | 0.00 | 0.00 | 0.00 | 97 | 1021.1 |
| 20260904011727 | 22 | 119 | 0.0 | 0.0 | 0.00 | 0.00 | 0.00 | 98 | 1020.8 |
| 20260904011223 | 22 | 138 | 0.0 | 0.0 | 0.00 | 0.00 | 0.00 | 97 | 1020.9 |
| 20260904010718 | 23 | 247 | 0.0 | 0.0 | 0.00 | 0.00 | 0.00 | 97 | 1020.9 |
| 20260904010215 | 23 | 132 | 0.0 | 0.0 | 0.00 | 0.00 | 0.00 | 97 | 1020.9 |
| 20260904005710 | 23 | 91 | 0.0 | 0.0 | 0.00 | 0.00 | 0.00 | 97 | 1020.9 |
| 20260904005206 | 23 | 68 | 0.0 | 0.0 | 0.00 | 0.00 | 0.00 | 97 | 1020.9 |
| 20260904004701 | 23 | 198 | 0.0 | 0.0 | 0.00 | 0.00 | 0.00 | 96 | 1020.9 |
| 20260904004200 | 23 | 180 | 0.0 | 0.0 | 0.00 | 0.00 | 0.00 | 95 | 1020.8 |
| 20260904003650 | 23 | 242 | 0.0 | 0.0 | 0.00 | 0.00 | 0.00 | 95 | 1021.0 |
| 20260904003147 | 23 | 113 | 0.0 | 0.0 | 0.00 | 0.00 | 0.00 | 95 | 1020.8 |
| 20260904002643 | 24 | 263 | 0.0 | 0.0 | 0.00 | 0.00 | 0.00 | 94 | 1020.9 |
| 20260904002138 | 24 | 113 | 0.0 | 0.0 | 0.00 | 0.00 | 0.00 | 94 | 1020.8 |
| 20260904001632 | 25 | 193 | 0.0 | 0.0 | 0.00 | 0.00 | 0.00 | 93 | 1020.8 |
| 20260904001131 | 25 | 166 | 0.0 | 0.0 | 0.00 | 0.00 | 0.00 | 91 | 1020.8 |
| 20260904000627 | 25 | 93 | 0.0 | 0.0 | 0.00 | 0.00 | 0.00 | 92 | 1020.7 |
| 20260904000122 | 25 | 171 | 0.0 | 0.0 | 0.00 | 0.00 | 0.00 | 92 | 1020.9 |
| 20260903235622 | 25 | 64 | 0.0 | 0.0 | 0.00 | 0.00 | 0.00 | 90 | 1020.8 |
| 20260903235118 | 26 | 169 | 0.0 | 0.0 | 0.00 | 0.00 | 0.00 | 89 | 1020.7 |
| 20260903234612 | 26 | 67 | 0.0 | 0.0 | 0.00 | 0.00 | 0.00 | 86 | 1020.8 |
| 20260903234108 | 27 | 47 | 0.0 | 0.0 | 0.00 | 0.00 | 0.00 | 87 | 1020.9 |
| 20260903233605 | 27 | 30 | 0.0 | 3.2 | 0.00 | 0.00 | 0.00 | 83 | 1021.0 |
| 20260903233100 | 27 | 17 | 0.0 | 0.0 | 0.00 | 0.00 | 0.00 | 84 | 1020.8 |
| 20260903232555 | 27 | 13 | 0.0 | 0.0 | 0.00 | 0.00 | 0.00 | 83 | 1020.9 |
| 20260903232050 | 27 | 34 | 1.6 | 3.2 | 0.00 | 0.00 | 0.00 | 81 | 1020.7 |
| 20260903231544 | 27 | 33 | 3.2 | 4.8 | 0.00 | 0.00 | 0.00 | 82 | 1020.4 |
| 20260903231038 | 28 | 336 | 0.0 | 0.0 | 0.00 | 0.00 | 0.00 | 82 | 1020.5 |
| 20260903230535 | 28 | 33 | 0.0 | 0.0 | 0.00 | 0.00 | 0.00 | 79 | 1020.4 |
| 20260903230033 | 28 | 44 | 1.6 | 3.2 | 0.00 | 0.00 | 0.00 | 78 | 1020.0 |
| 20260903225531 | 28 | 24 | 0.0 | 3.2 | 0.00 | 0.00 | 0.00 | 78 | 1020.1 |
| 20260903225028 | 28 | 19 | 1.6 | 1.6 | 0.00 | 0.00 | 0.00 | 78 | 1020.0 |
| 20260903224523 | 29 | 14 | 0.0 | 0.0 | 0.00 | 0.00 | 0.00 | 76 | 1020.1 |
| 20260903224019 | 30 | 16 | 1.6 | 1.6 | 0.00 | 0.00 | 0.00 | 74 | 1019.8 |
| 20260903223519 | 30 | 4 | 1.6 | 1.6 | 0.00 | 0.00 | 0.00 | 72 | 1019.8 |
| 20260903223018 | 30 | 1 | 1.6 | 1.6 | 0.00 | 0.00 | 0.00 | 71 | 1019.6 |
| 20260903222513 | 30 | 350 | 0.0 | 0.0 | 0.00 | 0.00 | 0.00 | 73 | 1019.6 |
| 20260903222012 | 30 | 357 | 0.0 | 0.0 | 0.00 | 0.00 | 0.00 | 74 | 1019.6 |
| 20260903221508 | 30 | 325 | 0.0 | 0.0 | 0.00 | 0.00 | 0.00 | 75 | 1019.6 |
| 20260903221005 | 30 | 3 | 1.6 | 3.2 | 0.00 | 0.00 | 0.00 | 75 | 1019.7 |
| 20260903220459 | 30 | 333 | 0.0 | 0.0 | 0.00 | 0.00 | 0.00 | 77 | 1019.6 |
| 20260903215956 | 29 | 28 | 0.0 | 0.0 | 0.00 | 0.00 | 0.00 | 77 | 1019.4 |
| 20260903215453 | 29 | 48 | 3.2 | 4.8 | 0.00 | 0.00 | 0.00 | 76 | 1019.6 |
| 20260903214951 | 28 | 20 | 0.0 | 0.0 | 0.00 | 0.00 | 0.00 | 78 | 1019.7 |
| 20260903214447 | 28 | 32 | 1.6 | 3.2 | 0.00 | 0.00 | 0.00 | 77 | 1019.8 |
| 20260903213946 | 28 | 48 | 3.2 | 3.2 | 0.00 | 0.00 | 0.00 | 78 | 1019.6 |
| 20260903213442 | 28 | 38 | 0.0 | 1.6 | 0.00 | 0.00 | 0.00 | 77 | 1019.7 |
| 20260903212938 | 28 | 57 | 1.6 | 3.2 | 0.00 | 0.00 | 0.00 | 78 | 1019.6 |
| 20260903212434 | 28 | 60 | 3.2 | 4.8 | 0.00 | 0.00 | 0.00 | 78 | 1019.7 |
| 20260903211928 | 28 | 76 | 1.6 | 3.2 | 0.00 | 0.00 | 0.00 | 81 | 1019.4 |
| 20260903211424 | 28 | 70 | 1.6 | 4.8 | 0.00 | 0.00 | 0.00 | 79 | 1019.7 |
| 20260903210920 | 28 | 89 | 1.6 | 1.6 | 0.00 | 0.00 | 0.00 | 80 | 1019.6 |
| 20260903210419 | 29 | 114 | 0.0 | 1.6 | 0.00 | 0.00 | 0.00 | 79 | 1019.7 |
| 20260903205915 | 30 | 13 | 0.0 | 0.0 | 0.00 | 0.00 | 0.00 | 74 | 1019.6 |
| 20260903205415 | 30 | 37 | 1.6 | 3.2 | 0.00 | 0.00 | 0.00 | 74 | 1019.9 |
| 20260903204909 | 30 | 26 | 0.0 | 1.6 | 0.00 | 0.00 | 0.00 | 71 | 1019.6 |
| 20260903204405 | 31 | 13 | 0.0 | 1.6 | 0.00 | 0.00 | 0.00 | 68 | 1019.8 |
| 20260903203901 | 31 | 266 | 1.6 | 1.6 | 0.00 | 0.00 | 0.00 | 66 | 1019.9 |
| 20260903203356 | 30 | 10 | 0.0 | 3.2 | 0.00 | 0.00 | 0.00 | 70 | 1020.1 |
| 20260903202855 | 30 | 46 | 0.0 | 3.2 | 0.00 | 0.00 | 0.00 | 70 | 1020.5 |
| 20260903202352 | 30 | 22 | 0.0 | 3.2 | 0.00 | 0.00 | 0.00 | 69 | 1020.6 |
| 20260903201852 | 30 | 22 | 1.6 | 1.6 | 0.00 | 0.00 | 0.00 | 69 | 1020.7 |
| 20260903201347 | 30 | 357 | 0.0 | 1.6 | 0.00 | 0.00 | 0.00 | 71 | 1020.7 |
| 20260903200846 | 30 | 22 | 0.0 | 3.2 | 0.00 | 0.00 | 0.00 | 69 | 1020.6 |
| 20260903200341 | 30 | 352 | 1.6 | 3.2 | 0.00 | 0.00 | 0.00 | 71 | 1020.8 |
| 20260903195836 | 29 | 11 | 1.6 | 1.6 | 0.00 | 0.00 | 0.00 | 72 | 1020.7 |
| 20260903195333 | 29 | 3 | 1.6 | 3.2 | 0.00 | 0.00 | 0.00 | 73 | 1020.9 |
| 20260903194827 | 28 | 22 | 1.6 | 6.4 | 0.00 | 0.00 | 0.00 | 73 | 1021.1 |
| 20260903194322 | 28 | 15 | 3.2 | 4.8 | 0.00 | 0.00 | 0.00 | 74 | 1021.0 |
| 20260903193818 | 28 | 16 | 3.2 | 4.8 | 0.00 | 0.00 | 0.00 | 75 | 1021.2 |
| 20260903193314 | 28 | 24 | 4.8 | 6.4 | 0.00 | 0.00 | 0.00 | 73 | 1021.3 |
| 20260903192809 | 30 | 13 | 4.8 | 6.4 | 0.00 | 0.00 | 0.00 | 72 | 1021.4 |
| 20260903192306 | 30 | 352 | 1.6 | 3.2 | 0.00 | 0.00 | 0.00 | 70 | 1021.2 |
| 20260903191800 | 30 | 352 | 1.6 | 3.2 | 0.00 | 0.00 | 0.00 | 69 | 1021.2 |
| 20260903191256 | 31 | 351 | 4.8 | 4.8 | 0.00 | 0.00 | 0.00 | 69 | 1021.3 |
| 20260903190750 | 30 | 21 | 1.6 | 3.2 | 0.00 | 0.00 | 0.00 | 69 | 1021.5 |
| 20260903190245 | 29 | 13 | 0.0 | 0.0 | 0.00 | 0.00 | 0.00 | 72 | 1021.7 |
| 20260903185740 | 28 | 113 | 1.6 | 3.2 | 0.00 | 0.00 | 0.00 | 75 | 1021.6 |
| 20260903185239 | 28 | 18 | 0.0 | 0.0 | 0.00 | 0.00 | 0.00 | 73 | 1021.5 |
| 20260903184736 | 28 | 23 | 1.6 | 1.6 | 0.00 | 0.00 | 0.00 | 75 | 1021.9 |
| 20260903184231 | 28 | 340 | 0.0 | 0.0 | 0.00 | 0.00 | 0.00 | 77 | 1021.6 |
| 20260903183726 | 27 | 236 | 0.0 | 3.2 | 0.00 | 0.00 | 0.00 | 77 | 1021.9 |
| 20260903183221 | 27 | 352 | 0.0 | 3.2 | 0.00 | 0.00 | 0.00 | 77 | 1021.6 |
| 20260903182719 | 28 | 5 | 1.6 | 9.7 | 0.00 | 0.00 | 0.00 | 76 | 1021.6 |
| 20260903182215 | 28 | 17 | 4.8 | 6.4 | 0.00 | 0.00 | 0.00 | 74 | 1021.8 |
| 20260903181713 | 28 | 2 | 4.8 | 6.4 | 0.00 | 0.00 | 0.00 | 75 | 1021.7 |
| 20260903181208 | 28 | 15 | 8.0 | 11.3 | 0.00 | 0.00 | 0.00 | 73 | 1021.8 |
| 20260903180704 | 28 | 13 | 6.4 | 11.3 | 0.00 | 0.00 | 0.00 | 75 | 1022.2 |
| 20260903180158 | 28 | 27 | 8.0 | 9.7 | 0.00 | 0.00 | 0.00 | 75 | 1021.8 |
| 20260903175657 | 29 | 7 | 6.4 | 11.3 | 0.00 | 0.00 | 0.00 | 73 | 1022.1 |
| 20260903175156 | 28 | 10 | 3.2 | 9.7 | 0.00 | 0.00 | 0.00 | 74 | 1022.1 |
| 20260903174651 | 28 | 348 | 4.8 | 9.7 | 0.00 | 0.00 | 0.00 | 74 | 1021.9 |
| 20260903174146 | 28 | 10 | 6.4 | 9.7 | 0.00 | 0.00 | 0.00 | 73 | 1022.1 |
| 20260903173641 | 31 | 6 | 4.8 | 6.4 | 0.00 | 0.00 | 0.00 | 62 | 1022.3 |
| 20260903173137 | 32 | 50 | 0.0 | 4.8 | 0.00 | 0.00 | 0.00 | 58 | 1022.2 |
| 20260903172638 | 32 | 287 | 3.2 | 3.2 | 0.00 | 0.00 | 0.00 | 59 | 1022.1 |
| 20260903172133 | 31 | 91 | 3.2 | 4.8 | 0.00 | 0.00 | 0.00 | 57 | 1022.2 |
| 20260903171632 | 31 | 128 | 6.4 | 6.4 | 0.00 | 0.00 | 0.00 | 59 | 1021.9 |
| 20260903171128 | 31 | 212 | 6.4 | 16.1 | 0.00 | 0.00 | 0.00 | 57 | 1022.2 |
| 20260903170627 | 30 | 213 | 3.2 | 9.7 | 0.00 | 0.00 | 0.00 | 62 | 1022.3 |
| 20260903170123 | 30 | 320 | 0.0 | 3.2 | 0.00 | 0.00 | 0.00 | 60 | 1022.3 |
| 20260903165621 | 31 | 16 | 3.2 | 4.8 | 0.00 | 0.00 | 0.00 | 61 | 1022.2 |
| 20260903165115 | 32 | 269 | 0.0 | 4.8 | 0.00 | 0.00 | 0.00 | 57 | 1022.2 |
| 20260903164610 | 31 | 246 | 3.2 | 4.8 | 0.00 | 0.00 | 0.00 | 62 | 1022.3 |
| 20260903164107 | 31 | 284 | 3.2 | 4.8 | 0.00 | 0.00 | 0.00 | 61 | 1022.4 |
| 20260903163606 | 30 | 341 | 3.2 | 6.4 | 0.00 | 0.00 | 0.00 | 59 | 1022.5 |
| 20260903163102 | 30 | 239 | 3.2 | 4.8 | 0.00 | 0.00 | 0.00 | 65 | 1022.3 |
| 20260903162558 | 30 | 161 | 3.2 | 3.2 | 0.00 | 0.00 | 0.00 | 64 | 1022.5 |
| 20260903162054 | 31 | 242 | 3.2 | 4.8 | 0.00 | 0.00 | 0.00 | 60 | 1022.6 |
| 20260903161549 | 31 | 271 | 1.6 | 9.7 | 0.00 | 0.00 | 0.00 | 59 | 1022.4 |
| 20260903161045 | 31 | 124 | 4.8 | 14.5 | 0.00 | 0.00 | 0.00 | 59 | 1022.2 |
| 20260903160544 | 31 | 213 | 4.8 | 6.4 | 0.00 | 0.00 | 0.00 | 64 | 1022.6 |
| 20260903160039 | 31 | 190 | 6.4 | 11.3 | 0.00 | 0.00 | 0.00 | 59 | 1022.5 |
| 20260903155537 | 31 | 263 | 6.4 | 9.7 | 0.00 | 0.00 | 0.00 | 61 | 1022.7 |
| 20260903155033 | 31 | 207 | 3.2 | 9.7 | 0.00 | 0.00 | 0.00 | 62 | 1022.5 |
| 20260903154530 | 31 | 359 | 3.2 | 4.8 | 0.00 | 0.00 | 0.00 | 61 | 1022.5 |
| 20260903154026 | 30 | 264 | 4.8 | 9.7 | 0.00 | 0.00 | 0.00 | 64 | 1022.5 |
| 20260903153520 | 30 | 150 | 8.0 | 11.3 | 0.00 | 0.00 | 0.00 | 66 | 1022.3 |
| 20260903153016 | 30 | 194 | 1.6 | 9.7 | 0.00 | 0.00 | 0.00 | 62 | 1022.5 |
| 20260903152512 | 30 | 227 | 1.6 | 1.6 | 0.00 | 0.00 | 0.00 | 64 | 1022.6 |
| 20260903152008 | 30 | 79 | 1.6 | 3.2 | 0.00 | 0.00 | 0.00 | 70 | 1022.6 |
| 20260903151507 | 30 | 200 | 1.6 | 3.2 | 0.00 | 0.00 | 0.00 | 66 | 1022.7 |
| 20260903151002 | 29 | 216 | 1.6 | 6.4 | 0.00 | 0.00 | 0.00 | 74 | 1022.6 |
| 20260903150457 | 27 | 90 | 4.8 | 9.7 | 0.00 | 0.00 | 0.00 | 75 | 1022.6 |
| 20260903145952 | 28 | 82 | 4.8 | 6.4 | 0.00 | 0.00 | 0.00 | 76 | 1022.6 |
| 20260903145447 | 28 | 221 | 1.6 | 4.8 | 0.00 | 0.00 | 0.00 | 69 | 1022.4 |
| 20260903144942 | 28 | 278 | 3.2 | 4.8 | 0.00 | 0.00 | 0.00 | 76 | 1022.6 |
| 20260903144441 | 28 | 129 | 1.6 | 3.2 | 0.00 | 0.00 | 0.00 | 78 | 1022.5 |
| 20260903143937 | 28 | 95 | 0.0 | 3.2 | 0.00 | 0.00 | 0.00 | 78 | 1022.6 |
| 20260903143434 | 27 | 101 | 3.2 | 3.2 | 0.00 | 0.00 | 0.00 | 80 | 1022.5 |
| 20260903142929 | 27 | 23 | 0.0 | 0.0 | 0.00 | 0.00 | 0.00 | 80 | 1022.7 |
| 20260903142425 | 27 | 55 | 3.2 | 3.2 | 0.00 | 0.00 | 0.00 | 80 | 1022.7 |
| 20260903141921 | 27 | 67 | 0.0 | 1.6 | 0.00 | 0.00 | 0.00 | 82 | 1022.7 |
| 20260903141416 | 26 | 100 | 3.2 | 3.2 | 0.00 | 0.00 | 0.00 | 85 | 1022.6 |
| 20260903140912 | 26 | 275 | 0.0 | 1.6 | 0.00 | 0.00 | 0.00 | 86 | 1022.5 |
| 20260903140406 | 25 | 62 | 0.0 | 1.6 | 0.00 | 0.00 | 0.00 | 86 | 1022.8 |
| 20260903135901 | 25 | 58 | 0.0 | 0.0 | 0.00 | 0.00 | 0.00 | 88 | 1022.6 |
| 20260903135352 | 25 | 32 | 0.0 | 4.8 | 0.00 | 0.00 | 0.00 | 89 | 1022.5 |
| 20260903134850 | 25 | 77 | 1.6 | 3.2 | 0.00 | 0.00 | 0.00 | 89 | 1022.9 |
| 20260903134345 | 25 | 82 | 1.6 | 3.2 | 0.00 | 0.00 | 0.00 | 87 | 1022.9 |
| 20260903133843 | 26 | 15 | 0.0 | 0.0 | 0.00 | 0.00 | 0.00 | 84 | 1022.7 |
| 20260903133339 | 25 | 70 | 1.6 | 3.2 | 0.00 | 0.00 | 0.00 | 85 | 1022.8 |
| 20260903132834 | 26 | 245 | 0.0 | 0.0 | 0.00 | 0.00 | 0.00 | 83 | 1022.8 |
| 20260903132330 | 25 | 65 | 3.2 | 3.2 | 0.00 | 0.00 | 0.00 | 86 | 1022.9 |
| 20260903131825 | 25 | 169 | 0.0 | 0.0 | 0.00 | 0.00 | 0.00 | 86 | 1022.9 |
| 20260903131324 | 24 | 49 | 1.6 | 3.2 | 0.00 | 0.00 | 0.00 | 88 | 1023.0 |
| 20260903130823 | 24 | 240 | 1.6 | 3.2 | 0.00 | 0.00 | 0.00 | 87 | 1023.0 |
| 20260903130318 | 23 | 146 | 3.2 | 3.2 | 0.00 | 0.00 | 0.00 | 88 | 1022.8 |
| 20260903125817 | 24 | 197 | 3.2 | 4.8 | 0.00 | 0.00 | 0.00 | 90 | 1023.0 |
| 20260903125313 | 23 | 116 | 3.2 | 4.8 | 0.00 | 0.00 | 0.00 | 90 | 1023.2 |
| 20260903124812 | 23 | 207 | 1.6 | 3.2 | 0.00 | 0.00 | 0.00 | 93 | 1023.3 |
| 20260903124308 | 23 | 214 | 3.2 | 4.8 | 0.00 | 0.00 | 0.00 | 91 | 1023.1 |
| 20260903123806 | 22 | 223 | 0.0 | 3.2 | 0.00 | 0.00 | 0.00 | 92 | 1023.3 |
| 20260903123306 | 22 | 213 | 3.2 | 4.8 | 0.00 | 0.00 | 0.00 | 92 | 1023.4 |
| 20260903122804 | 22 | 214 | 1.6 | 4.8 | 0.00 | 0.00 | 0.00 | 92 | 1023.1 |
| 20260903122259 | 21 | 168 | 1.6 | 4.8 | 0.00 | 0.00 | 0.00 | 93 | 1023.2 |
| 20260903121757 | 21 | 189 | 0.0 | 0.0 | 0.00 | 0.00 | 0.00 | 96 | 1023.3 |
| 20260903121253 | 21 | 168 | 1.6 | 1.6 | 0.00 | 0.00 | 0.00 | 96 | 1023.4 |
| 20260903120749 | 20 | 238 | 0.0 | 3.2 | 0.00 | 0.00 | 0.00 | 97 | 1023.2 |
| 20260903120247 | 21 | 159 | 1.6 | 3.2 | 0.00 | 0.00 | 0.00 | 96 | 1023.0 |
| 20260903115747 | 20 | 106 | 0.0 | 0.0 | 0.00 | 0.00 | 0.00 | 96 | 1023.2 |
| 20260903115242 | 21 | 261 | 1.6 | 3.2 | 0.00 | 0.00 | 0.00 | 96 | 1023.2 |
| 20260903114741 | 20 | 105 | 1.6 | 1.6 | 0.00 | 0.00 | 0.00 | 97 | 1023.3 |
| 20260903114238 | 20 | 140 | 1.6 | 1.6 | 0.00 | 0.00 | 0.00 | 97 | 1023.3 |
| 20260903113732 | 20 | 109 | 0.0 | 3.2 | 0.00 | 0.00 | 0.00 | 96 | 1023.1 |
| 20260903113229 | 21 | 91 | 3.2 | 9.7 | 0.00 | 0.00 | 0.00 | 94 | 1023.1 |
| 20260903112724 | 20 | 118 | 0.0 | 3.2 | 0.00 | 0.00 | 0.00 | 96 | 1023.0 |
| 20260903112220 | 20 | 107 | 3.2 | 3.2 | 0.00 | 0.00 | 0.00 | 97 | 1022.9 |
| 20260903111719 | 20 | 351 | 0.0 | 3.2 | 0.00 | 0.00 | 0.00 | 97 | 1022.9 |
| 20260903111214 | 20 | 210 | 3.2 | 4.8 | 0.00 | 0.00 | 0.00 | 96 | 1022.8 |
| 20260903110710 | 20 | 235 | 1.6 | 4.8 | 0.00 | 0.00 | 0.00 | 97 | 1022.7 |
| 20260903110206 | 20 | 121 | 1.6 | 3.2 | 0.00 | 0.00 | 0.00 | 97 | 1022.6 |
| 20260903105705 | 20 | 245 | 3.2 | 4.8 | 0.00 | 0.00 | 0.00 | 96 | 1022.6 |
| 20260903105200 | 20 | 111 | 1.6 | 1.6 | 0.00 | 0.00 | 0.00 | 97 | 1022.6 |
| 20260903104700 | 20 | 343 | 0.0 | 0.0 | 0.00 | 0.00 | 0.00 | 96 | 1022.3 |
| 20260903104155 | 20 | 65 | 4.8 | 6.4 | 0.00 | 0.00 | 0.00 | 96 | 1022.5 |
| 20260903103651 | 20 | 280 | 0.0 | 1.6 | 0.00 | 0.00 | 0.00 | 95 | 1022.5 |
| 20260903103147 | 20 | 56 | 4.8 | 9.7 | 0.00 | 0.00 | 0.00 | 95 | 1022.3 |
| 20260903102642 | 20 | 235 | 0.0 | 3.2 | 0.00 | 0.00 | 0.00 | 96 | 1022.3 |
| 20260903102142 | 20 | 155 | 0.0 | 1.6 | 0.00 | 0.00 | 0.00 | 95 | 1022.2 |
| 20260903101641 | 21 | 100 | 0.0 | 3.2 | 0.00 | 0.00 | 0.00 | 94 | 1022.2 |
| 20260903101137 | 21 | 221 | 1.6 | 3.2 | 0.00 | 0.00 | 0.00 | 93 | 1022.1 |
| 20260903100632 | 20 | 109 | 4.8 | 6.4 | 0.00 | 0.00 | 0.00 | 94 | 1022.1 |
| 20260903100131 | 20 | 193 | 0.0 | 3.2 | 0.00 | 0.00 | 0.00 | 95 | 1021.9 |
| 20260903095629 | 20 | 226 | 4.8 | 6.4 | 0.00 | 0.00 | 0.00 | 95 | 1022.1 |
| 20260903095128 | 20 | 196 | 0.0 | 1.6 | 0.00 | 0.00 | 0.00 | 95 | 1021.9 |
| 20260903094623 | 21 | 173 | 1.6 | 3.2 | 0.00 | 0.00 | 0.00 | 94 | 1022.1 |
| 20260903094119 | 21 | 221 | 4.8 | 6.4 | 0.00 | 0.00 | 0.00 | 93 | 1021.8 |
| 20260903093614 | 20 | 71 | 6.4 | 6.4 | 0.00 | 0.00 | 0.00 | 96 | 1021.8 |
| 20260903093109 | 20 | 244 | 3.2 | 4.8 | 0.00 | 0.00 | 0.00 | 96 | 1021.8 |
| 20260903092608 | 20 | 249 | 1.6 | 3.2 | 0.00 | 0.00 | 0.00 | 97 | 1021.7 |
| 20260903092103 | 20 | 333 | 0.0 | 3.2 | 0.00 | 0.00 | 0.00 | 97 | 1021.9 |
| 20260903091601 | 20 | 62 | 1.6 | 3.2 | 0.00 | 0.00 | 0.00 | 96 | 1021.8 |
| 20260903091056 | 20 | 58 | 1.6 | 1.6 | 0.00 | 0.00 | 0.00 | 96 | 1021.7 |
| 20260903090552 | 20 | 42 | 0.0 | 0.0 | 0.00 | 0.00 | 0.00 | 97 | 1021.6 |
| 20260903090050 | 19 | 61 | 3.2 | 3.2 | 0.00 | 0.00 | 0.00 | 97 | 1021.6 |
| 20260903085544 | 20 | 52 | 1.6 | 1.6 | 0.00 | 0.00 | 0.00 | 97 | 1021.7 |
| 20260903085040 | 20 | 49 | 1.6 | 3.2 | 0.00 | 0.00 | 0.00 | 97 | 1021.6 |
| 20260903084538 | 20 | 175 | 0.0 | 3.2 | 0.00 | 0.00 | 0.00 | 96 | 1021.3 |
| 20260903084032 | 20 | 237 | 0.0 | 3.2 | 0.00 | 0.00 | 0.00 | 97 | 1021.7 |
| 20260903083528 | 20 | 331 | 3.2 | 3.2 | 0.00 | 0.00 | 0.00 | 96 | 1021.5 |
| 20260903083028 | 20 | 74 | 4.8 | 4.8 | 0.00 | 0.00 | 0.00 | 96 | 1021.4 |
| 20260903082522 | 20 | 283 | 3.2 | 4.8 | 0.00 | 0.00 | 0.00 | 94 | 1021.4 |
| 20260903082018 | 20 | 69 | 3.2 | 4.8 | 0.00 | 0.00 | 0.00 | 96 | 1021.4 |
| 20260903081514 | 20 | 47 | 1.6 | 6.4 | 0.00 | 0.00 | 0.00 | 95 | 1021.4 |
| 20260903081009 | 19 | 100 | 0.0 | 0.0 | 0.00 | 0.00 | 0.00 | 97 | 1021.4 |
| 20260903080505 | 19 | 332 | 0.0 | 0.0 | 0.00 | 0.00 | 0.00 | 97 | 1021.5 |
| 20260903080001 | 19 | 102 | 0.0 | 0.0 | 0.00 | 0.00 | 0.00 | 97 | 1021.5 |
| 20260903075455 | 20 | 275 | 0.0 | 0.0 | 0.00 | 0.00 | 0.00 | 97 | 1021.5 |
| 20260903074945 | 19 | 108 | 1.6 | 3.2 | 0.00 | 0.00 | 0.00 | 98 | 1021.7 |
| 20260903074444 | 20 | 294 | 0.0 | 1.6 | 0.00 | 0.00 | 0.00 | 97 | 1021.6 |
| 20260903073939 | 19 | 97 | 3.2 | 4.8 | 0.00 | 0.00 | 0.00 | 97 | 1021.6 |
| 20260903073434 | 19 | 56 | 3.2 | 4.8 | 0.00 | 0.00 | 0.00 | 97 | 1021.6 |
| 20260903072930 | 19 | 118 | 0.0 | 0.0 | 0.00 | 0.00 | 0.00 | 97 | 1021.5 |
| 20260903072426 | 20 | 263 | 0.0 | 0.0 | 0.00 | 0.00 | 0.00 | 96 | 1021.4 |
| 20260903071923 | 20 | 235 | 0.0 | 1.6 | 0.00 | 0.00 | 0.00 | 96 | 1021.5 |
| 20260903071418 | 20 | 78 | 3.2 | 3.2 | 0.00 | 0.00 | 0.00 | 96 | 1021.5 |
| 20260903070914 | 20 | 250 | 0.0 | 4.8 | 0.00 | 0.00 | 0.00 | 95 | 1021.8 |
| 20260903070408 | 20 | 35 | 4.8 | 4.8 | 0.00 | 0.00 | 0.00 | 96 | 1021.5 |
| 20260903065903 | 20 | 147 | 3.2 | 4.8 | 0.00 | 0.00 | 0.00 | 96 | 1021.7 |
| 20260903065402 | 20 | 206 | 3.2 | 4.8 | 0.00 | 0.00 | 0.00 | 97 | 1021.7 |
| 20260903064856 | 20 | 199 | 0.0 | 1.6 | 0.00 | 0.00 | 0.00 | 97 | 1021.7 |
| 20260903064352 | 20 | 190 | 3.2 | 6.4 | 0.00 | 0.00 | 0.00 | 97 | 1021.9 |
| 20260903063848 | 19 | 225 | 3.2 | 4.8 | 0.00 | 0.00 | 0.00 | 98 | 1022.1 |
| 20260903063342 | 19 | 258 | 1.6 | 4.8 | 0.00 | 0.00 | 0.00 | 99 | 1021.9 |